Regional Weather Roundup
Issued by NWS

Home | Current Version | Previous Version | Graphics & Text | Print | Product List | Glossary On
Versions: 1 2 3 4 5 6 7 8 9 10 11 12 13 14 15 16 17 18 19 20 21 22 23 24 25 26 27 28 29 30 31 32 33 34 35 36 37 38 39 40 41 42 43 44 45 46 47 48 49 50
000
ASUS43 KIND 030909
RWRIN

WEATHER ROUNDUP FOR INDIANA
NATIONAL WEATHER SERVICE INDIANAPOLIS IN
500 AM EDT THU SEP 03 2015

NOTE: "FAIR" INDICATES FEW OR NO CLOUDS BELOW 12,000 FEET WITH NO
SIGNIFICANT WEATHER AND/OR OBSTRUCTIONS TO VISIBILITY.

* - STATION DOES NOT REPORT WEATHER SUCH AS PRECIPITATION OR FOG.

+ - STATION NOT QUALITY CONTROLLED BY THE NATIONAL WEATHER SERVICE.
    USE DATA WITH CAUTION...ESPECIALLY DEWPOINT AND RELATIVE
    HUMIDITY OBSERVATIONS.

INZ001>003-010>013-019-020-031000-
NORTHWEST INDIANA

CITY           SKY/WX    TMP DP  RH WIND       PRES   REMARKS
GARY /AIRPORT/ MOCLDY    76  66  73 CALM      29.97S
KNOX *+        PTCLDY    68  68 100 SW5       29.98R
LA PORTE +     PTCLDY   N/A N/A N/A SW3       29.99S
MICHIGAN CITY+ CLOUDY    72  64  78 CALM      29.98R
MONTICELLO +   PTCLDY    72  70  95 S5        29.99S
RENSSELAER +   PTCLDY    70  70 100 S3        29.99S
VALPARAISO     PTCLDY    72  68  87 SW3       29.99R

$$

LMZ046-743>745-031000-
SOUTHERN LAKE MICHIGAN

STATION/POSITION TIME  TEMP    WIND        PRES    WAVE
                       AIR SEA DIR/SP/G            HT
                 (UTC) (F)     (DEG/KT/KT) (MB)    (FT)
BURNS HARBOR     0800   77     210/ 11/ 15 1014.9S
MICHIGAN CITY    0800   76     180/ 10/ 11   N/A
5NW MICH CITY    0900   76 73  240/  8/ 10   N/A     1

$$

INZ004-005-014>016-021>024-031000-
NORTH CENTRAL INDIANA

CITY           SKY/WX    TMP DP  RH WIND       PRES   REMARKS
GOSHEN         PTCLDY    71  67  87 CALM      29.98S
LOGANSPORT +   PTCLDY    68  63  83 CALM      30.01S
PERU/GRISSOM   CLEAR     70  67  90 CALM      30.00R
ROCHESTER +    CLEAR     73  70  88 CALM      30.00S
SOUTH BEND     CLEAR     72  68  87 SW5       29.99R
WARSAW +       PTCLDY    70  68  94 CALM      29.99S

$$

INZ006>009-017-018-025>027-031000-
NORTHEAST INDIANA

CITY           SKY/WX    TMP DP  RH WIND       PRES   REMARKS
ANGOLA *+      CLEAR     70  61  73 CALM      29.99S
AUBURN +       PTCLDY    68  66  94 CALM      30.00S FOG
FORT WAYNE     PTCLDY    69  67  93 SW6       30.00S
HUNTINGTON +   CLEAR     69  65  88 CALM      30.00S

$$

INZ028-029-035-036-043>045-051>053-031000-
WEST CENTRAL INDIANA

CITY           SKY/WX    TMP DP  RH WIND       PRES   REMARKS
CRAWFORDSVL +  PTCLDY    64  64 100 SE3       30.02S FOG
GREENCASTLE +  CLEAR     63  61  94 CALM      30.03S FOG
LAFAYETTE      PTCLDY    70  67  90 CALM      30.00R
TERRE HAUTE    PTCLDY    64  63  96 CALM      30.01S FOG

$$

INZ030>032-037>040-046>048-054>057-064-065-031000-
CENTRAL INDIANA

CITY           SKY/WX    TMP DP  RH WIND       PRES   REMARKS
FISHERS *+     CLEAR     68  68 100 CALM      30.02R
FRANKFORT +    PTCLDY   N/A N/A N/A CALM      30.03S HAZE
GREENWOOD *+   CLEAR     66  63  88 CALM      30.03S
INDIANAPOLIS   CLEAR     70  67  90 W6        30.01S
-EAGLE CREEK   CLEAR     69  67  93 CALM      30.01S
KOKOMO *+      CLEAR     70  64  83 SW8       30.01S
MARION +       CLEAR     65  60  82 CALM      30.02R
MT COMFORT *+  CLEAR     64 N/A N/A CALM      30.02F
SHELBYVILLE    CLOUDY    66  63  90 CALM      30.02R FOG
ZIONSVILLE +   CLEAR     64  61  89 CALM      30.03S FOG

$$

INZ033-034-041-042-049-050-058-059-031000-
EAST CENTRAL INDIANA

CITY           SKY/WX    TMP DP  RH WIND       PRES   REMARKS
MUNCIE         CLEAR     68  66  93 CALM      30.02R

$$

INZ060-061-067>069-081>083-085>088-031000-
SOUTHWEST INDIANA

CITY           SKY/WX    TMP DP  RH WIND       PRES   REMARKS
EVANSVILLE     CLEAR     70  67  90 CALM      30.01S FOG
HUNTINGBURG *+ CLEAR     66  64  94 CALM      30.02S
WASHINGTON +   CLEAR     66  62  87 CALM      30.00S FOG

$$

INZ062-063-066-070>080-084-089>092-031000-
SOUTH CENTRAL AND SOUTHEAST INDIANA

CITY           SKY/WX    TMP DP  RH WIND       PRES   REMARKS
BLOOMINGTON    CLEAR     65  64  97 CALM      30.03S FOG
NORTH VERNON + CLEAR     68  68 100 CALM      30.03R FOG
SEYMOUR +      FOG       64  64 100 CALM      30.02R VSB 1/4

$$




USA.gov is the U.S. government's official web portal to all federal, state and local government web resources and services.